SCP
1 1 1 1 1 1 1 1 1 1 1 1 1 0 0 0 0 0 0 0 0 0 0 0 0 0 0 0 0 0 0 0 0 0 0 0 0 0 0 0 0 0 0
1 1 1 1 1 1 1 1 1 1 1 1 0 0 0 0 0 0 0 0 0 0 0 0 0 0 0 0 0 0 0 0 0 0 0 0 0 0 0 0 0 0 0
1 1 1 1 1 1 1 1 1 1 1 1 0 0 0 0 0 0 0 0 0 0 0 0 0 0 0 0 0 0 0 0 0 0 0 0 0 0 0 0 0 0 0
1 1 1 1 1 1 1 1 1 1 1 1 1 0 0 0 0 0 0 0 0 0 0 0 0 0 0 0 0 0 0 0 0 0 0 0 0 0 0 0 0 0 0
1 1 1 1 1 1 1 1 1 1 1 1 1 0 0 0 0 0 0 0 0 0 0 0 0 0 0 0 0 0 0 0 0 0 0 0 0 0 0 0 0 0 0
1 1 1 1 1 1 1 1 1 1 1 1 0 0 0 0 0 0 0 0 0 0 0 0 0 0 0 0 0 0 0 0 0 0 0 0 0 0 0 0 0 0 0
1 1 1 1 1 1 1 1 1 1 1 1 0 0 0 0 0 0 0 0 0 0 0 0 0 0 0 0 0 0 0 0 0 0 0 0 0 0 0 0 0 0 0
1 1 1 1 1 1 1 1 1 1 1 1 0 0 0 0 0 0 0 0 0 0 0 0 0 0 0 0 0 0 0 0 0 0 0 0 0 0 0 0 0 0 0
1 1 1 1 1 1 1 1 1 1 1 1 1 0 0 0 0 0 0 0 0 0 0 0 0 0 0 0 0 0 0 0 0 0 0 0 0 0 0 0 0 0 0
0 0 0 0 0 1 1 1 1 1 1 1 1 0 0 0 0 0 0 0 0 0 0 0 0 0 0 0 0 0 0 0 0 0 0 0 0 0 0 0 0 0 0
0 0 0 0 0 0 1 1 1 1 1 1 1 0 0 0 0 0 0 0 0 0 0 0 0 0 0 0 0 0 0 0 0 0 0 0 0 0 0 0 0 0 0
0 0 0 0 0 0 1 1 1 1 1 1 1 0 0 0 0 0 0 0 0 0 0 0 0 0 0 0 0 0 0 0 0 0 0 0 0 0 0 0 0 0 0
0 0 0 0 0 0 1 1 1 1 1 1 1 1 0 0 0 0 0 0 0 0 0 0 0 0 0 0 0 0 0 0 0 0 0 0 0 0 0 0 0 0 0
0 0 0 0 0 0 0 1 1 1 1 1 1 0 0 0 0 0 0 0 0 0 0 0 0 0 0 0 0 0 0 0 0 0 0 0 0 0 0 0 0 0 0
0 0 0 0 0 0 0 0 0 0 1 1 0 0 0 0 0 0 0 0 0 0 0 0 0 0 0 0 0 0 0 0 0 0 0 0 0 0 0 0 0 0 0
0 0 0 0 0 0 0 0 0 0 0 0 0 0 0 0 0 0 0 0 0 0 0 0 0 0 0 0 0 0 0 0 0 0 0 0 0 0 0 0 0 0 0
0 0 0 0 0 0 0 0 0 0 0 0 0 0 0 0 0 0 0 0 0 0 0 0 0 0 0 0 0 0 0 0 0 0 0 0 0 0 0 0 0 0 0
0 0 0 0 0 0 0 0 0 0 0 0 0 0 0 0 0 0 0 0 0 0 0 0 0 0 0 0 0 0 0 0 0 0 0 0 0 0 0 0 0 0 0
0 0 0 0 0 0 0 0 0 0 0 0 0 0 0 0 0 0 0 0 0 0 0 0 0 0 0 0 0 0 0 0 0 0 0 0 0 0 0 0 0 0 0
0 0 0 0 0 0 0 0 0 0 0 0 0 0 0 0 0 0 0 0 0 0 0 0 0 0 0 0 0 0 0 0 0 0 0 0 0 0 0 0 0 0 0
0 0 0 0 0 0 0 0 0 0 0 0 0 0 0 0 0 0 0 0 0 0 0 0 0 0 0 0 0 0 0 0 0 0 0 0 0 0 0 0 0 0 0
0 0 0 0 0 0 0 0 0 0 0 0 0 0 0 0 0 0 0 0 0 0 0 0 0 0 0 0 0 0 0 0 0 0 0 0 0 0 0 0 0 0 0
0 0 0 0 0 0 0 0 0 0 0 0 0 0 0 0 0 0 0 0 0 0 0 0 0 0 0 0 0 0 0 0 0 0 0 0 0 0 0 0 0 0 0
0 0 0 0 0 0 0 0 0 0 0 0 0 0 0 0 0 0 0 0 0 0 0 0 0 0 0 0 0 0 0 0 0 0 0 0 0 0 0 0 0 0 0
0 0 0 0 0 0 0 0 0 0 0 0 0 0 0 0 -0 0 0 0 0 0 0 0 0 0 0 0 0 0 0 0 0 0 0 0 0 0 0 0 0 0 0
0 0 0 0 0 0 0 0 0 0 0 0 0 0 0 0 0 0 0 0 0 0 0 0 0 0 0 0 0 0 0 0 0 0 0 0 0 0 0 0 0 0 0
Wind_Speed
6 6 8 9 8 7 6 6 6 4 3 3 2 2 2 1 1 2 3 4 3 3 3 2 2 2 2 2 3 2 2 1 2 2 1 2 1 0 1 1 2 2 2
6 6 6 7 7 7 7 6 6 5 4 3 2 2 2 1 1 1 2 3 3 3 3 3 3 3 2 2 2 2 2 1 2 3 2 1 2 2 0 1 2 2 1
11 8 7 6 7 7 7 6 6 5 4 3 2 2 2 2 1 1 1 2 3 3 2 3 3 3 3 3 3 3 3 2 1 2 3 3 2 1 1 0 1 1 2
9 8 8 7 7 6 5 5 5 4 4 4 4 5 3 2 2 1 1 1 2 2 2 3 3 3 2 3 3 3 3 3 2 1 1 2 3 3 0 1 1 1 2
9 9 8 8 7 6 5 4 4 4 3 4 5 5 3 2 1 1 1 1 1 1 2 3 3 3 2 3 3 2 3 3 3 2 1 1 1 2 3 1 1 1 1
10 8 7 7 6 5 5 5 5 4 4 4 4 5 5 4 3 2 2 1 1 1 1 2 2 2 2 3 3 3 3 2 3 2 2 2 2 2 2 2 1 1 1
10 8 7 7 6 7 6 5 6 4 4 4 4 4 5 5 4 3 3 2 1 1 1 1 1 2 2 2 2 3 2 3 3 2 1 2 2 2 3 3 2 0 1
8 9 8 8 7 7 7 6 6 5 4 4 4 3 3 3 3 3 3 2 2 2 2 2 2 2 2 3 2 2 2 2 2 2 2 1 1 1 2 3 3 1 1
8 8 7 7 7 7 6 6 6 5 5 4 3 3 3 3 3 3 2 2 1 2 1 1 2 2 3 3 3 2 2 2 2 2 2 1 1 1 1 2 3 4 2
8 7 7 7 6 6 5 5 5 5 4 5 4 3 3 3 3 3 2 2 2 2 2 2 2 2 2 3 2 2 2 2 2 1 2 1 1 1 1 2 2 2 3
8 7 5 5 5 5 5 5 5 4 4 4 4 4 4 3 3 3 2 2 2 2 2 2 3 2 2 2 2 2 2 2 2 2 2 2 2 2 1 1 2 1 2
7 7 6 5 5 5 4 4 4 4 4 4 4 4 3 3 3 2 2 3 3 2 3 3 3 2 3 3 3 2 2 2 2 1 2 1 2 2 1 2 2 1 1
7 6 6 5 5 5 5 4 4 4 4 4 5 4 4 3 3 3 2 3 3 3 3 3 3 2 2 3 2 2 2 2 2 2 2 1 2 1 1 1 1 1 1
7 6 5 5 5 5 5 5 4 4 4 5 5 4 4 4 3 3 3 3 3 3 3 3 3 3 3 3 3 3 3 3 3 2 2 2 2 2 1 1 1 1 1
7 7 6 5 5 5 5 5 5 4 4 4 4 4 3 3 3 3 3 3 3 4 3 4 3 2 3 2 3 3 3 3 3 2 2 2 2 2 2 1 1 2 2
8 6 6 7 6 5 5 5 5 4 4 4 4 3 4 4 4 4 3 3 3 3 4 4 3 3 2 3 4 4 3 2 3 2 1 2 2 3 3 2 2 3 3
8 7 7 7 6 6 6 6 6 5 4 3 3 4 4 4 3 4 4 4 3 3 4 4 4 3 2 3 4 4 3 2 2 2 1 1 2 2 2 3 3 2 1
7 6 5 5 5 4 5 5 5 5 5 4 3 3 4 3 3 4 3 3 3 3 3 3 3 3 2 3 4 4 3 2 2 1 2 2 1 1 2 2 3 2 1
7 6 5 5 5 5 5 6 5 4 4 4 3 3 4 4 4 4 3 3 3 3 2 2 3 3 1 2 3 4 2 2 2 1 1 2 1 0 2 3 2 2 2
5 5 5 4 5 5 5 6 5 4 4 4 4 3 4 5 4 4 3 3 3 3 3 2 2 2 1 1 2 3 2 2 1 2 2 2 1 0 2 2 1 0 2
5 6 5 4 4 4 5 5 4 4 3 3 3 3 3 4 5 4 3 3 3 3 3 2 1 1 2 1 2 4 3 2 1 1 1 1 1 1 0 1 2 3 2
4 5 5 3 3 4 5 5 4 3 3 3 3 3 3 4 4 4 3 3 4 3 2 2 1 1 1 1 2 3 3 3 2 1 1 1 1 1 1 1 2 1 1
4 4 5 4 2 3 4 5 3 3 3 3 3 3 3 2 3 4 4 3 3 3 2 2 2 0 0 0 1 2 2 2 1 1 1 2 2 1 1 1 1 0 1
4 4 5 4 3 2 3 4 4 4 4 4 3 3 3 2 2 2 3 3 3 3 3 3 2 1 1 1 0 1 1 1 0 0 1 2 2 1 1 2 1 0 1
4 5 5 5 4 3 3 3 4 5 5 4 3 3 2 3 2 2 2 3 3 5 6 4 4 4 3 4 5 3 2 2 2 1 1 1 2 2 2 2 2 1 0
4 4 4 4 4 3 3 3 3 5 5 4 3 2 2 2 2 2 1 2 1 4 6 6 5 4 5 5 4 4 3 3 3 3 1 1 1 1 2 2 2 2 2
Wind_Direction
164 156 148 144 140 142 144 149 147 153 148 148 152 144 150 149 149 158 152 151 157 166 161 163 159 156 157 164 155 145 136 139 124 98 39 357 358 164 186 187 180 177 179
149 147 144 143 147 152 153 154 154 162 168 171 169 160 154 144 141 150 150 154 155 166 166 158 161 160 153 147 155 146 138 158 144 135 118 44 352 341 328 185 179 180 163
160 154 147 148 149 153 161 162 165 168 172 159 135 115 82 71 73 93 129 168 162 165 169 165 161 160 159 167 175 163 157 171 198 161 148 149 193 271 334 305 177 181 182
152 151 148 149 154 159 155 151 157 162 160 147 145 146 145 154 183 162 156 170 158 158 161 160 164 166 167 171 182 174 171 160 175 209 169 161 157 152 171 331 325 226 200
154 158 160 162 161 159 153 147 141 144 147 147 151 147 143 152 141 127 126 141 146 160 162 160 157 163 171 174 169 158 162 161 166 170 156 117 101 125 141 194 280 330 275
159 163 166 155 152 151 148 145 143 139 140 140 148 153 152 145 138 147 158 168 170 174 168 163 161 164 168 175 172 162 158 158 155 151 145 147 148 164 148 166 195 238 285
161 161 157 152 157 159 156 154 147 142 144 137 144 154 153 156 163 171 172 168 164 178 199 173 163 164 163 166 159 152 154 153 148 153 158 155 173 164 151 144 165 198 302
160 163 162 159 164 164 160 157 153 149 153 151 155 152 155 162 169 173 170 169 172 183 182 173 166 167 155 152 145 144 151 147 149 148 144 145 176 152 152 154 145 126 344
159 159 157 157 160 164 165 165 161 158 164 164 149 147 162 166 167 168 155 157 166 172 162 160 153 153 145 138 135 141 149 143 144 147 138 131 143 134 137 142 148 151 175
150 153 154 156 161 163 165 164 161 170 168 159 158 156 166 164 164 156 152 156 165 157 153 155 143 140 140 137 133 141 150 135 143 140 127 126 123 109 113 133 135 146 158
150 154 156 153 153 153 158 161 162 159 153 153 154 150 155 149 140 142 152 149 144 144 140 136 131 133 136 135 131 136 135 130 121 126 132 138 125 101 92 98 102 113 136
140 141 144 139 136 145 156 161 163 161 160 158 148 150 143 133 128 134 135 125 124 119 122 114 116 126 121 121 125 127 120 123 125 126 123 131 118 102 97 103 104 106 139
129 129 135 140 142 148 150 151 158 162 151 145 142 141 139 136 140 141 129 117 115 109 106 109 108 106 109 108 113 116 109 109 110 112 115 119 109 113 113 129 138 151 141
138 138 141 143 142 145 149 149 147 147 147 144 142 149 158 155 154 143 124 117 113 110 107 109 115 115 111 107 108 107 97 91 85 93 105 109 125 148 147 138 150 144 117
145 151 154 152 150 145 147 145 141 136 137 142 146 162 161 148 140 129 121 111 106 111 112 104 103 104 104 107 113 108 101 102 93 82 84 92 109 120 131 132 144 135 129
158 159 157 154 156 155 149 140 138 134 125 137 150 151 145 143 139 138 126 114 107 109 105 101 96 88 86 102 107 109 110 111 111 105 83 65 70 71 76 85 125 151 153
166 167 167 164 166 164 150 145 141 131 126 131 134 140 143 139 138 135 127 127 126 114 104 99 99 90 82 101 106 101 111 116 122 121 112 71 56 65 70 50 47 58 127
162 164 165 166 162 149 139 140 134 132 135 135 140 144 143 142 137 126 132 132 124 120 113 109 110 104 87 93 96 95 94 92 103 123 136 128 83 70 97 83 55 26 360
161 163 168 161 151 146 144 137 136 136 142 153 158 159 152 145 142 143 145 134 124 122 127 130 124 112 83 90 101 104 88 77 56 59 95 117 121 61 102 97 76 14 341
146 149 151 138 142 156 147 140 147 147 159 171 170 168 161 153 154 158 152 137 131 137 139 131 129 126 116 91 110 112 106 90 59 37 37 59 98 104 117 120 129 246 291
140 138 133 138 157 156 138 138 144 164 180 168 155 152 162 160 157 153 149 142 136 129 127 129 122 121 131 113 117 124 116 128 110 64 355 333 25 55 139 165 186 219 236
133 135 133 135 153 148 139 142 162 180 157 144 143 146 155 163 154 149 149 147 144 138 136 128 115 80 99 120 143 148 143 136 140 198 259 279 308 309 281 231 234 232 196
147 144 137 128 131 142 143 148 172 161 137 129 139 143 144 144 150 155 159 154 152 149 156 150 155 186 10 37 143 158 162 149 146 227 266 307 333 339 320 298 271 259 120
139 136 130 130 140 151 149 159 158 146 136 138 145 149 145 145 148 154 160 160 168 164 165 166 175 184 196 210 175 151 158 148 146 328 329 342 1 15 341 329 319 253 196
137 141 145 149 157 156 153 158 154 143 141 146 149 150 150 149 157 160 167 173 188 183 177 183 180 179 205 224 202 178 183 193 202 142 35 22 12 355 336 320 302 287 263
134 135 142 145 147 142 149 158 155 147 146 150 160 163 160 152 151 141 75 32 178 193 193 190 181 197 209 204 195 194 189 177 157 128 140 261 257 254 271 285 297 290 259